Simultaneous Nadir Overpasses (SNOs) Predictions

Prediction of SNOs between AURA and NPP Satellite Orbit:

Table of predicted SNOs for the next 14.0 days since TLE Epoch: 5/2/2014
Index Date (AURA) Time (AURA) Lat,Lon (AURA) SZA (AURA ) Date (NPP) Time (NPP) Lat,Lon (NPP) SZA (NPP ) Distance(km) Time Diff (sec)
1 05/03/2014 08:08:44 -77.26, 123.31 100.24 05/03/2014 08:08:14 -77.26, 123.32 100.22 0.18 30
2 05/03/2014 08:57:57 77.83, -66.69 79.06 05/03/2014 08:58:45 77.83, -66.70 79.02 0.13 48
3 05/05/2014 23:35:53 76.76, 69.71 79.61 05/05/2014 23:34:40 76.75, 69.64 79.69 2.03 73
4 05/06/2014 00:25:03 -77.58,-119.52 101.39 05/06/2014 00:25:06 -77.59,-119.42 101.42 2.57 3
5 05/08/2014 15:52:12 77.00,-173.52 78.59 05/08/2014 15:51:33 77.00,-173.60 78.64 2.30 39
6 05/08/2014 16:41:23 -77.77, -2.82 102.35 05/08/2014 16:42:00 -77.78, -2.73 102.41 2.54 37
7 05/11/2014 08:08:28 77.40, -56.11 77.42 05/11/2014 08:08:23 77.40, -56.07 77.42 1.14 5
8 05/11/2014 08:57:45 -77.88, 113.56 103.19 05/11/2014 08:58:57 -77.88, 113.56 103.25 0.18 72
9 05/13/2014 23:35:34 -77.05,-109.19 102.82 05/13/2014 23:34:46 -77.06,-109.09 102.80 2.59 48




NCC Satellite Simultaneous Nadir Overpasses (SNOs) Prediction Service
